BEIDOU-3 M14

Last updated on Jan. 20, 2021, 6:21 a.m. UTC

1 43623U 18072B   21019.49033193 -.00000008  00000-0  00000-0 0  9990
2 43623  55.2223 128.6348 0003387 313.0380  46.2352  1.86231414 15873
UTC
Height (km)
Latitude
Longitude
Inclination
Orbital Period
UTC large
Height (km)
Speed (km/s)
/
Latitude / Longitude
Inclination (degrees)
Orbital Period (minutes)
Azimuth
Elevation
Range (km)
Doppler Factor
iOS Compass Heading
iOS Angle

Next 30 passes for location: Hong Kong

Rise time Rise Azimuth (degrees) Set time Set Azimuth (degrees) Duration Max altitude (degrees)

No matching passes for this satellites